This is the latest recevied weather packets stored in our database for station/object N9ALD. If no packets are shown the sender has not sent any weather packets the latest 10 day(s).
| Time | Temp. | Humidity | Pressure | Rain* | Wind** | Luminosity | Snow |
|---|---|---|---|---|---|---|---|
| 1777326037 | 15.56° C | 96% | 1007.5 hPa | 3.05 mm | - | 13 W/m² | - |
| 1777325735 | 15.56° C | 96% | 1007.3 hPa | 3.05 mm | - | 14 W/m² | - |
| 1777325433 | 15.56° C | 96% | 1007.5 hPa | 1.78 mm | - | 13 W/m² | - |
| 1777325131 | 15.56° C | 96% | 1007.6 hPa | 3.56 mm | - | 12 W/m² | - |
| 1777324827 | 15.56° C | 96% | 1008.4 hPa | 1.78 mm | - | 13 W/m² | - |
| 1777324525 | 15.56° C | 97% | 1008.2 hPa | 1.27 mm | - | 12 W/m² | - |
| 1777324222 | 15.56° C | 97% | 1007 hPa | 3.05 mm | - | 11 W/m² | - |
| 1777323920 | 15.56° C | 97% | 1006.2 hPa | 3.05 mm | - | 9 W/m² | - |
| 1777323617 | 15.56° C | 97% | 1006.9 hPa | 4.32 mm | - | 8 W/m² | - |
| 1777323314 | 15.56° C | 97% | 1007.2 hPa | 6.1 mm | - | 7 W/m² | - |
| 1777323012 | 15.56° C | 96% | 1007.9 hPa | 7.87 mm | - | 6 W/m² | - |
| 1777322710 | 15.56° C | 96% | 1007.8 hPa | 9.65 mm | - | 6 W/m² | - |
| 1777322408 | 15.56° C | 96% | 1008.5 hPa | 9.65 mm | - | 6 W/m² | - |
| 1777322103 | 15.56° C | 96% | 1009 hPa | 7.87 mm | - | 6 W/m² | - |
| 1777321800 | 15.56° C | 96% | 1009.7 hPa | 6.1 mm | - | 5 W/m² | - |
| 1777321497 | 15.56° C | 96% | 1010.2 hPa | 3.05 mm | - | 6 W/m² | - |
| 1777321195 | 15.56° C | 96% | 1010.5 hPa | 4.32 mm | - | 6 W/m² | - |
| 1777320891 | 15.56° C | 96% | 1010.8 hPa | 4.83 mm | - | 6 W/m² | - |
| 1777320589 | 15.56° C | 96% | 1010.5 hPa | 3.56 mm | - | 6 W/m² | - |
| 1777320286 | 15.56° C | 96% | 1010.4 hPa | 4.83 mm | - | 5 W/m² | - |
| 1777319982 | 15.56° C | 95% | 1010.3 hPa | 6.1 mm | - | 5 W/m² | - |
| 1777319680 | 16.11° C | 95% | 1009.8 hPa | 8.89 mm | - | 5 W/m² | - |
| 1777319376 | 16.11° C | 95% | 1009.8 hPa | 8.89 mm | - | 5 W/m² | - |
| 1777319074 | 16.11° C | 95% | 1009.8 hPa | 7.87 mm | - | 5 W/m² | - |
| 1777318771 | 16.11° C | 94% | 1010 hPa | 19.81 mm | - | 5 W/m² | - |
* Rain latest hour (hover to see other rain measurements)
** Current wind speed in m/s (hover to see current wind gust speed)